Weather History for Garden City, KS

Change the Weather History Date:

Wednesday, May 14, 2014

  Actual Average Record
Temperature  
Mean Temperature 52 °F 63 °F  
Max Temperature 67 °F 76 °F 96 °F (1963)
Min Temperature 36 °F 50 °F 29 °F (1953)
Degree Days  
Heating Degree Days 13 4  
Month to date heating degree days 89 82  
Since 1 July heating degree days 5360 5144  
Cooling Degree Days 0 2  
Month to date cooling degree days 27 20  
Year to date cooling degree days 48 32  
Growing Degree Days 1 (Base 50)    
Moisture  
Dew Point 26 °F    
Average Humidity 46    
Maximum Humidity 75    
Minimum Humidity 16    
Precipitation  
Precipitation 0.00 in 0.09 in 1.50 in (1947)
Month to date precipitation 0.01 1.14  
Year to date precipitation 0.68 5.20  
Sea Level Pressure  
Sea Level Pressure 30.30 in    
Wind  
Wind Speed 12 mph (NNW)    
Max Wind Speed 24 mph    
Max Gust Speed 32 mph    
Visibility 10 miles    
Events      
T = Trace of Precipitation, MM = Missing Value Source: NWS Daily Summary

Daily Weather History Graph

Daily Weather History Graph

Search for Another Location

Airport:

Trip Planner

Search our weather history database for the weather conditions in past years. The results will help you decide how hot, cold, wet, or windy it might be!

Date:

Astronomy

May. 14, 2014 Rise Set
Actual Time 6:33 AM CDT 8:45 PM CDT
Civil Twilight 6:04 AM CDT 9:14 PM CDT
Nautical Twilight 5:28 AM CDT 9:51 PM CDT
Astronomical Twilight 4:48 AM CDT 10:30 PM CDT
Moon 8:53 PM CDT (5/14) 6:32 AM CDT (5/14)
Length of Visible Light 15h 10m
Length of Day
14h 11m
Full, 100% of the Moon is Illuminated
May 14
Full
May 14
Full
May 21
Last Quarter
May 28
New
Jun 5
First Quarter

Hourly Weather History & Observations

Time (CDT) Temp. Windchill Dew Point Humidity Pressure Visibility Wind Dir Wind Speed Gust Speed Precip Events Conditions
12:54 AM 39.9 °F 33.4 °F 27.0 °F 60% 30.37 in 10.0 mi North 10.4 mph - N/A   Clear
1:54 AM 39.0 °F 32.8 °F 26.1 °F 60% 30.37 in 10.0 mi NW 9.2 mph - N/A   Clear
2:54 AM 39.0 °F 31.8 °F 28.0 °F 65% 30.35 in 10.0 mi NW 11.5 mph - N/A   Clear
3:54 AM 37.0 °F 29.3 °F 28.0 °F 70% 30.35 in 10.0 mi NW 11.5 mph - N/A   Clear
4:54 AM 36.0 °F 27.5 °F 28.0 °F 73% 30.36 in 10.0 mi NW 12.7 mph - N/A   Clear
5:54 AM 37.0 °F 28.5 °F 28.0 °F 70% 30.35 in 10.0 mi NW 13.8 mph - N/A   Clear
6:54 AM 36.0 °F 27.5 °F 28.0 °F 73% 30.35 in 10.0 mi NW 12.7 mph - N/A   Clear
7:54 AM 39.9 °F 32.1 °F 30.0 °F 68% 30.36 in 10.0 mi NNW 13.8 mph - N/A   Clear
8:54 AM 46.9 °F - 32.0 °F 56% 30.37 in 10.0 mi NNW 11.5 mph - N/A   Clear
9:54 AM 53.6 °F - 32.0 °F 44% 30.37 in 10.0 mi North 10.4 mph - N/A   Clear
10:54 AM 57.9 °F - 30.0 °F 35% 30.34 in 10.0 mi North 10.4 mph - N/A   Clear
11:54 AM 60.1 °F - 19.9 °F 21% 30.32 in 10.0 mi NNW 10.4 mph 17.3 mph N/A   Scattered Clouds
12:54 PM 63.0 °F - 21.9 °F 21% 30.31 in 10.0 mi NNE 11.5 mph 21.9 mph N/A   Scattered Clouds
1:54 PM 62.1 °F - 21.0 °F 21% 30.28 in 10.0 mi NNW 8.1 mph 23.0 mph N/A   Mostly Cloudy
2:54 PM 63.0 °F - 19.9 °F 19% 30.25 in 10.0 mi NNE 18.4 mph 24.2 mph N/A   Mostly Cloudy
3:54 PM 66.9 °F - 19.9 °F 17% 30.22 in 10.0 mi NNW 15.0 mph - N/A   Mostly Cloudy
4:54 PM 64.0 °F - 21.0 °F 19% 30.22 in 10.0 mi North 18.4 mph 29.9 mph N/A   Overcast
5:54 PM 63.0 °F - 23.0 °F 22% 30.22 in 10.0 mi NNW 15.0 mph - N/A   Mostly Cloudy
6:54 PM 63.0 °F - 25.0 °F 24% 30.21 in 10.0 mi NW 13.8 mph 23.0 mph N/A   Clear
7:54 PM 61.0 °F - 25.0 °F 25% 30.20 in 10.0 mi NNW 12.7 mph - N/A   Clear
8:54 PM 55.0 °F - 28.0 °F 35% 30.22 in 6.0 mi NNW 10.4 mph - N/A   Haze
9:54 PM 53.1 °F - 32.0 °F 45% 30.22 in 10.0 mi NE 5.8 mph - N/A   Clear
10:54 PM 44.1 °F 41.5 °F 30.0 °F 58% 30.25 in 10.0 mi North 4.6 mph - N/A   Clear
11:54 PM 46.9 °F - 30.9 °F 54% 30.24 in 10.0 mi North 6.9 mph - N/A   Overcast